Lexington Weather

Lexington, Massachusetts, USA

72°F
8/7/2020 10:58am 
  • Lexington Conditions: Clear
  • Temperature: 71.6°F / 22.0°CWarmer 2.2°F than last hour.
  • Dew Point: 63.3°FIncreased 1.4°Fsince last hour.
  • Relative Humidity: 75%Decreased 2.0% since last hour.
  • Wind: Wind from WSW WSW 1 mph, 10-min avg: Calm, gust: 2 mph
  • Barometer: 30.14 inFalling 0.02  inHg/hr Falling Slowly
  • Visibility: 10 miles
  • Rain Today: 0.00 in
  •   

Regional Weather Roundup
for Boston / Norton, MA

        
000
ASUS41 KBOX 051904
RWRBOX

REGIONAL WEATHER ROUNDUP
NATIONAL WEATHER SERVICE BOSTON/NORTON MA
300 PM EDT WED AUG 05 2020

NOTE:  "FAIR" INDICATES FEW OR NO CLOUDS BELOW 12,000 FEET WITH NO 
SIGNIFICANT WEATHER AND/OR OBSTRUCTIONS TO VISIBILITY.

MAZALL-052000-
EASTERN MASSACHUSETTS
  
CITY           SKY/WX    TMP DP  RH WIND       PRES   REMARKS
BOSTON         PTSUNNY   91  60  35 SW12      29.93F HX  90           
BEVERLY        MOSUNNY   86  66  51 CALM      29.93F                  
LAWRENCE       PTSUNNY   86  63  45 SW9G16    29.96S                  
BEDFORD        PTSUNNY   88  66  48 W7        29.94F HX  90           
BLUE HILL        N/A     88  61  40 SW12G22   29.97F                  
NORWOOD        PTSUNNY   92  63  38 W16G23    29.94F HX  93           
MARSHFIELD     SUNNY     91  66  43 SW14      29.94F HX  94           
PLYMOUTH       SUNNY     90  65  43 SW14G25   29.97F HX  92           
TAUNTON        SUNNY     90  65  43 S13G23    29.96F HX  92           
NEW BEDFORD    SUNNY     88  67  49 SW16      29.98F HX  91           
$$

MAZALL-052000-
CAPE COD AND THE ISLANDS
  
CITY           SKY/WX    TMP DP  RH WIND       PRES   REMARKS
FALMOUTH       SUNNY     84  70  61 SW14G22   30.00F                  
HYANNIS        SUNNY     84  72  67 SW13      29.99F                  
CHATHAM        PTSUNNY   84  74  71 SW10G24   30.02S HX  91           
NANTUCKET      CLOUDY    79  72  79 SW12      30.03S                  
MARTHAS VNYRD  SUNNY     83  70  64 SW10      30.01F                  
$$
 
MAZALL-052000-
CENTRAL AND WESTERN MASSACHUSETTS
  
CITY           SKY/WX    TMP DP  RH WIND       PRES   REMARKS
WORCESTER      MOSUNNY   84  62  47 SW12      30.00F                  
FITCHBURG      SUNNY     88  61  40 W16       29.96F                  
ORANGE         MOSUNNY   85  62  46 W8        29.98F                  
SPRINGFIELD    MOSUNNY   87  57  35 W16       29.95F                  
WESTFIELD      SUNNY     87  61  41 W10G20    29.97F                  
NORTH ADAMS    NOT AVBL                                               
PITTSFIELD     MOSUNNY   80  59  48 NW12      30.02R                  
$$
 
RIZALL-052000-
RHODE ISLAND
  
CITY           SKY/WX    TMP DP  RH WIND       PRES   REMARKS
PROVIDENCE     MOSUNNY   91  64  40 SW18G26   29.98S HX  92           
NEWPORT        SUNNY     82  69  64 S13G21    30.00F                  
BLOCK ISLAND   SUNNY     80  68  66 SW15      30.02F                  
SMITHFIELD     MOSUNNY   84  64  50 SW10G17   29.99S                  
WESTERLY       SUNNY     83  67  58 S14       30.01F                  
$$
 
CTZALL-052000-
CONNECTICUT
  
CITY           SKY/WX    TMP DP  RH WIND       PRES   REMARKS
BRADLEY INTL   MOSUNNY   87  60  40 W14G20    29.97F                  
HARTFORD       NOT AVBL                                               
BRIDGEPORT     NOT AVBL                                               
DANBURY        MOSUNNY   84  60  44 W9        30.02F                  
GROTON         SUNNY     81  72  74 S7        29.99F                  
NEW HAVEN      MOSUNNY   88  67  49 SW14      29.99F HX  91           
CHESTER        NOT AVBL                                               
MERIDEN        PTSUNNY   87  60  40 W10       29.98F                  
WILLIMANTIC    MOSUNNY   87  66  49 S9        29.98F                  
OXFORD         MOSUNNY   81  65  58 W6        30.03F                  
$$

MEZ002-015-021-024-NHZ003-005-008-011-012-014-VTZ005-008-052000-
NORTHERN NEW ENGLAND
  
CITY           SKY/WX    TMP DP  RH WIND       PRES   REMARKS
PORTLAND ME    MOSUNNY   84  65  52 S14       29.93F                  
BANGOR ME      MOSUNNY   83  67  58 S12       29.89F                  
CONCORD NH     PTSUNNY   86  61  42 W12       29.95F                  
MANCHESTER NH  MOSUNNY   88  62  41 SW8G16    29.93F                  
NASHUA NH      PTSUNNY   89  64  43 W10G18    29.95F HX  90           
PORTSMOUTH NH  MOSUNNY   90  60  35 W12G17    29.92S                  
JAFFREY NH     PTSUNNY   80  61  52 W5        30.00F                  
KEENE NH       MOSUNNY   83  60  45 SW9G16    29.97F                  
BURLINGTON VT  MOSUNNY   80  55  42 SW8       29.95S                  
MT. WASHINGTON PTSUNNY   54  45  71 W45G53      N/A                   
$$

NYZ052-076-052000-
EASTERN NEW YORK
  
CITY           SKY/WX    TMP DP  RH WIND       PRES   REMARKS
ALBANY         MOSUNNY   78  58  49 W12G22    30.01R                  
NEW YORK CITY  PTSUNNY   88  56  33 W9        30.00S                  
$$
 
ANZALL-052000-
MARINE OBSERVATIONS
  
STATION/POSITION TIME  TEMP    WIND        PRES    VSBY  WAVE
                       AIR SEA DIR/SP/G                  HT/PER
                 (UTC) (F)     (DEG/KT/KT) (MB)    (MI)  (FT/S)
BOSTON BUOY      1750   66 62  130/  8/  8 1013.3          2/11
BUZZARDS BAY     1800          220/ 15/ 15 1017.3F
NANTUCKET SOUND  1840      77  220/ 14/ 17 1015.6
MASS BAY-STELLWA 1804   69     180/ 10/ 10 1012.2F  1 7/8  2/ 5
ISLE OF SHOALS   1800   72     170/ 23/ 24 1013.5F
S OF BLOCK IS    1826      71                N/A           6/ 8
$$

......................KEY.........................
  SKY/WX - SKY CONDITION/PRESENT WEATHER
  TMP    - TEMPERATURE IN FAHRENHEIT
  DWPT   - DEWPOINT IN FAHRENHEIT
  RH     - RELATIVE HUMIDITY IN PERCENT
  WIND   - DIRECTION AND SPEED IN MPH
  PRES   - MEAN SEA LEVEL PRESSURE IN INCHES OF HG
  WCI    - WIND CHILL INDEX
  VSB    - VISIBILITY IN MILES
  HX     - HEAT INDEX
  TC     - TEMPERATURE IN CELSIUS
  VRB    - VARIABLE WIND DIRECTION
  N/A    - NOT AVAILABLE
  
      

Other recent Regional Weather Roundups

Fri Aug 7, 10:04am

Fri Aug 7, 9:04am

Fri Aug 7, 8:04am

Fri Aug 7, 7:04am

Fri Aug 7, 6:04am

Fri Aug 7, 5:04am

Fri Aug 7, 4:04am

Fri Aug 7, 3:04am

Fri Aug 7, 2:04am

Fri Aug 7, 1:05am

Fri Aug 7, 12:04am

Thu Aug 6, 11:04pm

Thu Aug 6, 10:04pm

Thu Aug 6, 9:04pm

Thu Aug 6, 8:04pm

Thu Aug 6, 7:04pm

Thu Aug 6, 6:04pm

Thu Aug 6, 5:04pm

Thu Aug 6, 4:05pm

Thu Aug 6, 3:04pm

Thu Aug 6, 2:05pm

Thu Aug 6, 1:04pm

Thu Aug 6, 12:04pm

Thu Aug 6, 11:04am

Thu Aug 6, 10:04am

Thu Aug 6, 9:04am

Thu Aug 6, 8:04am

Thu Aug 6, 7:04am

Thu Aug 6, 6:04am

Thu Aug 6, 5:04am

Thu Aug 6, 4:04am

Thu Aug 6, 3:04am

Thu Aug 6, 2:05am

Thu Aug 6, 1:04am

Thu Aug 6, 12:04am

Wed Aug 5, 11:04pm

Wed Aug 5, 10:04pm

Wed Aug 5, 9:04pm

Wed Aug 5, 8:05pm

Wed Aug 5, 7:04pm

Wed Aug 5, 6:04pm

Wed Aug 5, 5:04pm

Wed Aug 5, 4:05pm

Wed Aug 5, 2:04pm

Wed Aug 5, 1:04pm

Wed Aug 5, 12:04pm

Wed Aug 5, 11:04am

Wed Aug 5, 10:04am

Wed Aug 5, 9:04am

Wed Aug 5, 8:04am

Wed Aug 5, 7:04am

Wed Aug 5, 6:04am

Wed Aug 5, 5:04am

Wed Aug 5, 4:04am

Wed Aug 5, 3:04am

Wed Aug 5, 2:05am

Wed Aug 5, 1:04am

Wed Aug 5, 12:05am

Tue Aug 4, 11:05pm

Tue Aug 4, 10:05pm

Tue Aug 4, 9:04pm

Tue Aug 4, 8:04pm

Tue Aug 4, 7:05pm

Tue Aug 4, 6:05pm

Tue Aug 4, 5:05pm

Tue Aug 4, 4:05pm

Tue Aug 4, 3:04pm

Tue Aug 4, 2:05pm

Tue Aug 4, 1:04pm

Tue Aug 4, 12:05pm

Tue Aug 4, 11:04am

Tue Aug 4, 10:04am

Tue Aug 4, 9:04am

Tue Aug 4, 8:04am

Tue Aug 4, 7:04am

Tue Aug 4, 6:04am

Tue Aug 4, 5:04am

Tue Aug 4, 4:04am

Tue Aug 4, 3:04am

Tue Aug 4, 2:04am

Tue Aug 4, 1:04am

Tue Aug 4, 12:04am

Mon Aug 3, 11:04pm

Mon Aug 3, 10:04pm

Mon Aug 3, 9:04pm

Mon Aug 3, 8:05pm

Mon Aug 3, 7:04pm

Mon Aug 3, 6:04pm

Mon Aug 3, 5:04pm

Mon Aug 3, 4:05pm

Mon Aug 3, 3:04pm

Mon Aug 3, 2:04pm

Mon Aug 3, 1:04pm

Mon Aug 3, 12:05pm

Mon Aug 3, 11:04am

Mon Aug 3, 10:04am

Mon Aug 3, 9:05am

Mon Aug 3, 8:04am

Mon Aug 3, 7:04am

Mon Aug 3, 6:04am

Mon Aug 3, 5:04am

Mon Aug 3, 4:04am

Mon Aug 3, 3:04am

Mon Aug 3, 2:04am

Mon Aug 3, 1:04am

Mon Aug 3, 12:05am

Sun Aug 2, 11:04pm

Sun Aug 2, 10:04pm

Sun Aug 2, 9:04pm

Sun Aug 2, 8:04pm

Sun Aug 2, 7:04pm

Sun Aug 2, 6:04pm

Sun Aug 2, 5:04pm

Sun Aug 2, 4:05pm

Sun Aug 2, 3:04pm

Sun Aug 2, 2:05pm

Sun Aug 2, 1:04pm

Sun Aug 2, 12:04pm

Sun Aug 2, 11:04am

Sun Aug 2, 10:04am

Sun Aug 2, 9:05am

Sun Aug 2, 8:05am

Sun Aug 2, 7:04am

Sun Aug 2, 6:04am

Sun Aug 2, 5:04am

Sun Aug 2, 4:05am

Sun Aug 2, 3:04am

Sun Aug 2, 2:04am

Sun Aug 2, 1:04am

Sun Aug 2, 12:05am

Sat Aug 1, 11:04pm

Sat Aug 1, 10:04pm

Sat Aug 1, 9:04pm

Sat Aug 1, 8:05pm

Sat Aug 1, 7:04pm

Sat Aug 1, 6:04pm

Sat Aug 1, 5:05pm

Sat Aug 1, 4:05pm

Sat Aug 1, 3:04pm

Sat Aug 1, 2:04pm

Sat Aug 1, 1:04pm

Sat Aug 1, 12:04pm

Sat Aug 1, 11:05am

Sat Aug 1, 10:05am

Sat Aug 1, 9:04am

Sat Aug 1, 8:04am

Sat Aug 1, 7:04am

Sat Aug 1, 6:04am

Sat Aug 1, 5:04am

Sat Aug 1, 4:05am

Sat Aug 1, 3:04am

Sat Aug 1, 2:04am

Sat Aug 1, 1:04am

Sat Aug 1, 12:05am

Fri Jul 31, 11:05pm

Fri Jul 31, 10:04pm

Fri Jul 31, 9:04pm

Fri Jul 31, 8:05pm

Fri Jul 31, 7:05pm

Fri Jul 31, 6:04pm

Fri Jul 31, 5:04pm

Fri Jul 31, 4:05pm

Fri Jul 31, 3:04pm

Fri Jul 31, 2:05pm

Fri Jul 31, 1:04pm

Fri Jul 31, 12:04pm

Fri Jul 31, 11:04am

Meta data:

ID: 9e7e2c0d-5283-44be-b9b1-2b18a4ebbf1f
Link: https://api.weather.gov/products/9e7e2c0d-5283-44be-b9b1-2b18a4ebbf1f